星链-5316 (STARLINK-5316 )

导读

STARLINK-5316是美国SpaceX星链(Starlink)卫星互联网项目中的一颗卫星,于2023年1月19日发射升空,属于星链低轨卫星星座建设批次,承担全球卫星互联网通信覆盖任务,运行于近地轨道,为全球多地用户提供宽带互联网接入服务。

Basic Information
目录编号:
55305
目录名称:
STARLINK-5316
国际标识:
2023-010AN
轨道中心:
EARTH
卫星名称:
星链-5316
卫星全名:
星链-5316 (STARLINK-5316 )
卫星状态:
在轨 (已飞行1332 天)
发射日期:
2023-01-19 UTC
国别 :
美国 (US)
星等 :
--
This satellite is enrolled in the Space Conjunction Data Service (SCDS) and the current flight risk assessment level is: No High Risk
Orbit Information
数据来源 国际轨道数据 AOE轨道数据
星历时间 2026-09-12T16:16:13+0800
6小时前
查看轨道信息
2026-09-11T00:00:00+0800
1天前
查看轨道信息
半长轴 6950.194km 6950.2km
偏心率 0.0003662 0.0003546
轨道倾角 69.998° 69.997°
近地点辐角 269.552° 268.915°
升交点赤经 274.018° 278.248°
平近点角 90.522° 42.991°
近地点 569.511km 569.598km
远地点 574.603km 574.528km
周期 96.107分钟 96.107分钟
每日圈数 14.983298 14.983278
Detailed Information
固有亮度:
5
最大亮度:
2.5
卫星平台:
Starlink v1.5
覆盖范围:
全球
运营商:
太空探索技术公司
运营商所在国:
美国
制造商(研发单位):
太空探索技术公司
制造商所在国:
美国
使用方式:
暂无
Satellite Introduction
星链(Starlink)计划是由太空探索技术公司(SpaceX)提出的一个巨型低轨卫星互联网星座项目,计划在2019年至2024年间在太空搭建由约1.2万颗卫星组成的“星链”网络,其中1584颗将部署在地球上空550千米处的近地轨道,并从2020年开始工作。该卫星仍在工作。
2D Orbit Map
3D Orbit Map
Orbit Altitude Analysis Chart
Orbit Inclination Analysis Chart
Orbit Comprehensive Analysis Chart
View Comprehensive Chart
Miss Distance Evolution Trend with All Objects
Collision Probability Evolution Trend with All Objects